Content
SEND FEEDBACK

Daily
Averages
Monthly
Summary
Canada

SUDBURY, ONTARIO


Home > North America > Canada > Ontario
Elevation: 1140 feet     Latitude: 46 37N     Longitude: 080 48W

WEATHER
 
SELECT A DAY
Number of Records: 186,933;   Date Range: 1/1/95 - 10/21/14
 
SHARE

PRINT THIS DATA

[ ← Previous Day ]
WEATHER ALMANAC - JULY 13, 2013
[ Next Day → ]
[ °C ]   °F
Weather ElementAverageHighLow
Temperature70.1 °F82.4 °F (3:00 pm)55.4 °F (5:00 am)
Dewpoint55.6 °F60.8 °F (9:00 pm)51.8 °F (10:00 am)
Humidity62.9 %100 % (6:00 am)32 % (2:00 pm)
Barometer30.23 in30.26 in (9:00 am)30.19 in (1:00 am)
Wind Speed8.7 mph13.8 mph (4:00 pm)
Wind Gust20.7 mph (3:00 pm)
Weather ElementAverage
Visibility18.6 mi
Wind DirectionSW (220.7 °)

Weather ElementTotal
Precipitation---
Cooling Degree Days3.9 (Base 65)
Growing Degree Days18.9 (Base 50)
Averaged from 27 records on July 13, 2013
WEATHER CONDITIONS BREAKOUT
WIND DIRECTION BREAKOUT
WEATHER BY HOUR - JULY 13, 2013
[ °C ]   °F
Local TimeTemperatureDewpointHumidityBarometerVisibilityWind DirectionWind SpeedGust SpeedPrecipitationEventsConditions
1:00 AM60.8 °F53.6 °F77 %30.19 in15.0 miWSW (250°)3.5 mphClear
2:00 AM60.0 °F55.0 °F77 %30.19 in15.0 miWSW (250°)4.6 mph
2:00 AM59.0 °F55.4 °F88 %30.19 in15.0 miWSW (250°)4.6 mphClear
3:00 AM57.2 °F55.4 °F94 %30.19 in20.0 miSW (220°)4.6 mphClear
4:00 AM59.0 °F53.6 °F82 %30.19 in15.0 miSouth (180°)3.5 mphClear
5:00 AM55.4 °F53.6 °F94 %30.22 in15.0 miSSW (210°)5.8 mphPartly Cloudy
6:00 AM55.4 °F55.4 °F100 %30.23 in20.0 miSouth (190°)6.9 mphFogPartly Cloudy
7:00 AM59.0 °F57.2 °F94 %30.24 in20.0 miSW (220°)4.6 mphPartly Cloudy
8:00 AM63.0 °F57.0 °F75 %30.25 in19.0 miSW (220°)11.2 mphClear
8:00 AM62.6 °F57.2 °F82 %30.25 in20.0 miSW (230°)5.8 mphPartly Cloudy
9:00 AM68.0 °F53.6 °F60 %30.26 in20.0 miSW (220°)9.2 mphPartly Cloudy
10:00 AM71.6 °F51.8 °F50 %30.26 in20.0 miWSW (240°)9.2 mphPartly Cloudy
11:00 AM73.4 °F53.6 °F50 %30.25 in20.0 miWSW (240°)5.8 mphPartly Cloudy
12:00 PM77.0 °F53.6 °F44 %30.25 in20.0 miSW (220°)12.7 mph19.6 mphPartly Cloudy
1:00 PM80.6 °F53.6 °F39 %30.25 in20.0 miSSW (210°)12.7 mphScattered Clouds
2:00 PM81.0 °F56.0 °F32 %30.24 in19.0 miSW (230°)10.4 mphScattered Clouds
2:00 PM80.6 °F55.4 °F42 %30.23 in20.0 miWSW (250°)9.2 mph18.4 mphPartly Cloudy
3:00 PM82.4 °F53.6 °F37 %30.23 in20.0 miSSW (200°)12.7 mph20.7 mphPartly Cloudy
4:00 PM82.4 °F53.6 °F37 %30.24 in20.0 miSSW (210°)13.8 mphPartly Cloudy
5:00 PM82.4 °F55.4 °F39 %30.23 in20.0 miWSW (240°)9.2 mph18.4 mphPartly Cloudy
6:00 PM80.6 °F55.4 °F42 %30.22 in20.0 miWSW (250°)11.5 mphPartly Cloudy
7:00 PM80.6 °F57.2 °F45 %30.22 in20.0 miSSW (210°)10.4 mph18.4 mphPartly Cloudy
8:00 PM77.0 °F58.0 °F42 %30.23 in19.0 miSSW (210°)11.5 mphClear
8:00 PM77.0 °F59.0 °F54 %30.22 in20.0 miSSW (210°)11.5 mphPartly Cloudy
9:00 PM73.4 °F60.8 °F65 %30.24 in20.0 miSSW (200°)11.5 mphPartly Cloudy
10:00 PM68.0 °F59.0 °F73 %30.25 in15.0 miSSW (200°)10.4 mphPartly Cloudy
11:00 PM64.4 °F59.0 °F83 %30.26 in15.0 miSSW (200°)8.1 mphClear
Hourly data recorded from CYSB, located miles away from Sudbury, Ontario







STORIES FROM OUR PARTNERS